| time (UTC) | temp F | wind direction | speed knots | gust knots | rain 1hr in | rain 24hr in | rain mn in | humidity % | barometer mb |
| 20260507063022 | 43 | 286 | 0.9 | 2.6 | 0.00 | 0.00 | 0.00 | 69 | 1012.3 |
| 20260507061519 | 44 | 285 | 0.9 | 3.5 | 0.00 | 0.00 | 0.00 | 68 | 1012.4 |
| 20260507060021 | 44 | 285 | 1.7 | 3.5 | 0.00 | 0.00 | 0.00 | 67 | 1012.5 |
| 20260507054516 | 44 | 287 | 1.7 | 4.3 | 0.00 | 0.00 | 0.00 | 67 | 1012.5 |
| 20260507053014 | 45 | 280 | 1.7 | 5.2 | 0.00 | 0.00 | 0.00 | 64 | 1012.5 |
| 20260507051512 | 45 | 281 | 3.5 | 5.2 | 0.00 | 0.00 | 0.00 | 64 | 1012.6 |
| 20260507050009 | 45 | 290 | 3.5 | 5.2 | 0.00 | 0.00 | 0.00 | 62 | 1012.6 |
| 20260507044522 | 45 | 283 | 2.6 | 4.3 | 0.00 | 0.00 | 0.00 | 62 | 1012.5 |
| 20260507043005 | 45 | 286 | 1.7 | 4.3 | 0.00 | 0.00 | 0.00 | 63 | 1012.6 |
| 20260507041502 | 46 | 288 | 1.7 | 3.5 | 0.00 | 0.00 | 0.00 | 63 | 1012.5 |
| 20260507040059 | 47 | 288 | 1.7 | 4.3 | 0.00 | 0.00 | 0.00 | 60 | 1012.5 |
| 20260507034613 | 47 | 271 | 2.6 | 4.3 | 0.00 | 0.00 | 0.00 | 60 | 1012.5 |
| 20260507033058 | 47 | 270 | 3.5 | 5.2 | 0.00 | 0.00 | 0.00 | 60 | 1012.5 |
| 20260507031558 | 47 | 269 | 3.5 | 7.0 | 0.00 | 0.00 | 0.00 | 59 | 1012.5 |
| 20260507024559 | 47 | 273 | 4.3 | 6.1 | 0.00 | 0.00 | 0.00 | 58 | 1012.5 |
| 20260507023057 | 47 | 267 | 2.6 | 4.3 | 0.00 | 0.00 | 0.00 | 60 | 1012.5 |
| 20260507021557 | 48 | 259 | 2.6 | 4.3 | 0.00 | 0.00 | 0.00 | 54 | 1012.4 |
| 20260507020055 | 49 | 259 | 2.6 | 5.2 | 0.00 | 0.00 | 0.00 | 51 | 1012.3 |
| 20260507014558 | 49 | 236 | 2.6 | 5.2 | 0.00 | 0.00 | 0.00 | 51 | 1012.1 |
| 20260507013101 | 49 | 243 | 1.7 | 4.3 | 0.00 | 0.00 | 0.00 | 50 | 1012.1 |
| 20260507011556 | 50 | 249 | 2.6 | 6.1 | 0.00 | 0.00 | 0.00 | 47 | 1012.0 |
| 20260507010054 | 50 | 261 | 3.5 | 6.1 | 0.00 | 0.00 | 0.00 | 45 | 1012.0 |
| 20260507004553 | 51 | 239 | 2.6 | 7.0 | 0.00 | 0.00 | 0.00 | 45 | 1011.9 |
| 20260507003053 | 51 | 245 | 4.3 | 10.4 | 0.00 | 0.00 | 0.00 | 44 | 1011.8 |
| 20260507001552 | 51 | 259 | 6.1 | 8.7 | 0.00 | 0.00 | 0.00 | 43 | 1011.7 |
| 20260507000054 | 52 | 267 | 6.1 | 9.6 | 0.00 | 0.00 | 0.00 | 43 | 1011.5 |
| 20260506234555 | 52 | 261 | 5.2 | 11.3 | 0.00 | 0.00 | 0.00 | 43 | 1011.6 |
| 20260506233051 | 52 | 264 | 4.3 | 10.4 | 0.00 | 0.00 | 0.00 | 43 | 1011.6 |
| 20260506231550 | 52 | 272 | 7.0 | 11.3 | 0.00 | 0.00 | 0.00 | 41 | 1011.6 |
| 20260506230049 | 53 | 265 | 6.1 | 10.4 | 0.00 | 0.00 | 0.00 | 41 | 1011.4 |
| 20260506224601 | 53 | 269 | 7.0 | 12.2 | 0.00 | 0.00 | 0.00 | 40 | 1011.5 |
| 20260506223049 | 53 | 288 | 8.7 | 13.9 | 0.00 | 0.00 | 0.00 | 42 | 1011.4 |
| 20260506221547 | 53 | 273 | 7.8 | 11.3 | 0.00 | 0.00 | 0.00 | 42 | 1011.5 |
| 20260506220048 | 53 | 257 | 5.2 | 10.4 | 0.00 | 0.00 | 0.00 | 43 | 1011.5 |
| 20260506214604 | 53 | 275 | 7.0 | 10.4 | 0.00 | 0.00 | 0.00 | 43 | 1011.4 |
| 20260506213047 | 53 | 263 | 6.1 | 11.3 | 0.00 | 0.00 | 0.00 | 45 | 1011.4 |
| 20260506211545 | 53 | 275 | 6.1 | 9.6 | 0.00 | 0.00 | 0.00 | 43 | 1011.5 |
| 20260506210044 | 53 | 279 | 3.5 | 10.4 | 0.00 | 0.00 | 0.00 | 43 | 1011.4 |
| 20260506204543 | 53 | 246 | 5.2 | 7.8 | 0.00 | 0.00 | 0.00 | 46 | 1011.5 |
| 20260506203046 | 52 | 305 | 2.6 | 11.3 | 0.00 | 0.00 | 0.00 | 45 | 1011.5 |
| 20260506201542 | 52 | 212 | 5.2 | 8.7 | 0.00 | 0.00 | 0.00 | 48 | 1011.7 |
| 20260506200042 | 52 | 256 | 4.3 | 9.6 | 0.00 | 0.00 | 0.00 | 47 | 1011.7 |
| 20260506194556 | 52 | 236 | 4.3 | 9.6 | 0.00 | 0.00 | 0.00 | 48 | 1011.8 |
| 20260506193040 | 52 | 195 | 4.3 | 8.7 | 0.00 | 0.00 | 0.00 | 48 | 1012.0 |
| 20260506191540 | 51 | 239 | 2.6 | 6.1 | 0.00 | 0.00 | 0.00 | 49 | 1012.1 |
| 20260506190043 | 51 | 336 | 2.6 | 9.6 | 0.00 | 0.00 | 0.00 | 54 | 1012.1 |
| 20260506184539 | 51 | 257 | 4.3 | 7.8 | 0.00 | 0.00 | 0.00 | 52 | 1012.3 |
| 20260506183039 | 52 | 259 | 2.6 | 10.4 | 0.00 | 0.00 | 0.00 | 49 | 1012.1 |
| 20260506181539 | 51 | 11 | 2.6 | 8.7 | 0.00 | 0.00 | 0.00 | 53 | 1012.1 |
| 20260506180042 | 51 | 316 | 2.6 | 9.6 | 0.00 | 0.00 | 0.00 | 51 | 1012.2 |
| 20260506174536 | 50 | 296 | 4.3 | 8.7 | 0.00 | 0.00 | 0.00 | 53 | 1012.4 |
| 20260506173034 | 50 | 331 | 6.1 | 11.3 | 0.00 | 0.00 | 0.00 | 52 | 1012.6 |
| 20260506171549 | 50 | 324 | 4.3 | 13.0 | 0.00 | 0.00 | 0.00 | 50 | 1012.8 |
| 20260506170038 | 50 | 332 | 4.3 | 12.2 | 0.00 | 0.00 | 0.00 | 49 | 1012.6 |
| 20260506164534 | 51 | 313 | 7.8 | 15.6 | 0.00 | 0.00 | 0.00 | 50 | 1012.5 |
| 20260506163034 | 49 | 351 | 4.3 | 8.7 | 0.00 | 0.00 | 0.00 | 56 | 1012.6 |
| 20260506161527 | 49 | 350 | 4.3 | 7.0 | 0.00 | 0.00 | 0.00 | 60 | 1012.6 |
| 20260506160030 | 48 | 229 | 1.7 | 7.0 | 0.00 | 0.00 | 0.00 | 60 | 1012.8 |
| 20260506154525 | 48 | 43 | 3.5 | 8.7 | 0.00 | 0.00 | 0.00 | 61 | 1012.8 |
| 20260506153022 | 48 | 28 | 1.7 | 4.3 | 0.00 | 0.00 | 0.00 | 66 | 1012.8 |
| 20260506151530 | 48 | 360 | 4.3 | 7.0 | 0.00 | 0.00 | 0.00 | 68 | 1012.7 |
| 20260506150019 | 46 | 345 | 0.9 | 7.0 | 0.00 | 0.00 | 0.00 | 68 | 1012.6 |
| 20260506144518 | 45 | 5 | 3.5 | 5.2 | 0.00 | 0.00 | 0.00 | 69 | 1012.7 |
| 20260506143020 | 45 | 34 | 1.7 | 5.2 | 0.00 | 0.00 | 0.00 | 69 | 1012.6 |
| 20260506141515 | 44 | 27 | 0.0 | 3.5 | 0.00 | 0.00 | 0.00 | 69 | 1012.4 |
| 20260506140021 | 44 | 5 | 1.7 | 6.1 | 0.00 | 0.00 | 0.00 | 70 | 1012.2 |
| 20260506134515 | 43 | 58 | 1.7 | 6.1 | 0.00 | 0.00 | 0.00 | 69 | 1012.2 |
| 20260506133027 | 43 | 348 | 6.1 | 8.7 | 0.00 | 0.00 | 0.00 | 67 | 1012.3 |
| 20260506131517 | 43 | 340 | 6.1 | 8.7 | 0.00 | 0.00 | 0.00 | 65 | 1012.1 |
| 20260506130011 | 42 | 5 | 6.1 | 7.8 | 0.00 | 0.00 | 0.00 | 60 | 1012.0 |
| 20260506124508 | 42 | 30 | 3.5 | 8.7 | 0.00 | 0.00 | 0.00 | 56 | 1011.8 |
| 20260506123007 | 41 | 29 | 5.2 | 8.7 | 0.00 | 0.00 | 0.00 | 54 | 1011.5 |
| 20260506121506 | 41 | 57 | 6.1 | 8.7 | 0.00 | 0.00 | 0.00 | 48 | 1011.3 |
| 20260506120004 | 41 | 49 | 5.2 | 8.7 | 0.00 | 0.00 | 0.00 | 44 | 1011.1 |
| 20260506114604 | 42 | 29 | 7.0 | 9.6 | 0.00 | 0.00 | 0.00 | 49 | 1010.6 |
| 20260506113101 | 41 | 55 | 5.2 | 7.8 | 0.00 | 0.00 | 0.00 | 53 | 1010.5 |
| 20260506111605 | 41 | 74 | 3.5 | 6.1 | 0.00 | 0.00 | 0.00 | 48 | 1010.4 |
| 20260506110053 | 40 | 118 | 2.6 | 4.3 | 0.00 | 0.00 | 0.00 | 52 | 1010.3 |
| 20260506104557 | 40 | 146 | 0.9 | 3.5 | 0.00 | 0.00 | 0.00 | 53 | 1010.1 |
| 20260506103057 | 40 | 155 | 0.0 | 0.0 | 0.00 | 0.00 | 0.00 | 61 | 1009.8 |
| 20260506101550 | 40 | 167 | 0.0 | 0.0 | 0.00 | 0.00 | 0.00 | 65 | 1009.6 |
| 20260506100041 | 42 | 43 | 0.0 | 5.2 | 0.00 | 0.00 | 0.00 | 68 | 1009.2 |
| 20260506094539 | 41 | 11 | 0.0 | 0.0 | 0.00 | 0.00 | 0.00 | 68 | 1009.0 |
| 20260506093036 | 42 | 11 | 0.0 | 1.7 | 0.00 | 0.00 | 0.00 | 69 | 1008.8 |
| 20260506091535 | 43 | 11 | 1.7 | 4.3 | 0.00 | 0.00 | 0.00 | 70 | 1008.6 |
| 20260506090032 | 42 | 11 | 2.6 | 4.3 | 0.00 | 0.00 | 0.00 | 70 | 1008.7 |
| 20260506084537 | 43 | 309 | 2.6 | 3.5 | 0.00 | 0.00 | 0.00 | 68 | 1008.4 |
| 20260506083029 | 44 | 300 | 2.6 | 4.3 | 0.00 | 0.00 | 0.00 | 67 | 1008.8 |
| 20260506081527 | 44 | 296 | 2.6 | 4.3 | 0.00 | 0.00 | 0.00 | 67 | 1008.6 |
| 20260506073020 | 45 | 296 | 1.7 | 2.6 | 0.00 | 0.00 | 0.00 | 65 | 1008.5 |
| 20260506071518 | 45 | 296 | 1.7 | 3.5 | 0.00 | 0.00 | 0.00 | 64 | 1008.3 |